| time (UTC) | temp C | wind direction | speed KPH | gust KPH | rain 1hr cm | rain 24hr cm | rain mn cm | humidity % | barometer mb |
| 20260505034031 | 15 | 188 | 8.0 | 11.3 | 0.00 | 0.00 | 0.00 | 56 | 1004.1 |
| 20260505033031 | 15 | 190 | 6.4 | 12.9 | 0.00 | 0.00 | 0.00 | 54 | 1004.2 |
| 20260505031031 | 15 | 192 | 4.8 | 12.9 | 0.00 | 0.00 | 0.00 | 54 | 1004.2 |
| 20260505030030 | 16 | 196 | 6.4 | 16.1 | 0.00 | 0.00 | 0.00 | 52 | 1004.3 |
| 20260505025031 | 15 | 194 | 4.8 | 12.9 | 0.00 | 0.00 | 0.00 | 53 | 1004.3 |
| 20260505024030 | 16 | 193 | 11.3 | 12.9 | 0.00 | 0.00 | 0.00 | 52 | 1004.2 |
| 20260505023030 | 16 | 194 | 6.4 | 12.9 | 0.00 | 0.00 | 0.00 | 52 | 1004.3 |
| 20260505021030 | 17 | 186 | 3.2 | 16.1 | 0.00 | 0.00 | 0.00 | 48 | 1004.5 |
| 20260505020030 | 17 | 180 | 6.4 | 12.9 | 0.00 | 0.00 | 0.00 | 48 | 1004.4 |
| 20260505015030 | 17 | 183 | 3.2 | 12.9 | 0.00 | 0.00 | 0.00 | 47 | 1004.2 |
| 20260505014030 | 17 | 180 | 1.6 | 16.1 | 0.00 | 0.00 | 0.00 | 47 | 1004.2 |
| 20260505012030 | 15 | 194 | 3.2 | 6.4 | 0.00 | 0.00 | 0.00 | 52 | 1004.1 |
| 20260505011030 | 15 | 195 | 4.8 | 4.8 | 0.00 | 0.00 | 0.00 | 52 | 1004.0 |
| 20260505010030 | 15 | 195 | 0.0 | 0.0 | 0.00 | 0.00 | 0.00 | 52 | 1004.0 |
| 20260505004030 | 15 | 195 | 0.0 | 0.0 | 0.00 | 0.00 | 0.00 | 50 | 1003.6 |
| 20260505003030 | 16 | 195 | 0.0 | 1.6 | 0.00 | 0.00 | 0.00 | 46 | 1003.7 |
| 20260505002030 | 16 | 195 | 0.0 | 1.6 | 0.00 | 0.00 | 0.00 | 45 | 1003.6 |
| 20260505001030 | 16 | 195 | 0.0 | 4.8 | 0.00 | 0.00 | 0.00 | 46 | 1003.7 |
| 20260505000030 | 17 | 195 | 3.2 | 4.8 | 0.00 | 0.00 | 0.00 | 44 | 1003.6 |
| 20260504235029 | 17 | 195 | 1.6 | 6.4 | 0.00 | 0.00 | 0.00 | 45 | 1003.5 |
| 20260504234029 | 17 | 195 | 4.8 | 8.0 | 0.00 | 0.00 | 0.00 | 43 | 1003.5 |
| 20260504233029 | 18 | 195 | 6.4 | 9.7 | 0.00 | 0.00 | 0.00 | 41 | 1003.4 |
| 20260504232029 | 18 | 196 | 6.4 | 9.7 | 0.00 | 0.00 | 0.00 | 40 | 1003.4 |
| 20260504231029 | 19 | 196 | 6.4 | 19.3 | 0.00 | 0.00 | 0.00 | 38 | 1003.4 |
| 20260504230059 | 20 | 195 | 14.5 | 16.1 | 0.00 | 0.00 | 0.00 | 35 | 1003.6 |
| 20260504225029 | 20 | 198 | 6.4 | 16.1 | 0.00 | 0.00 | 0.00 | 37 | 1003.6 |
| 20260504224029 | 20 | 202 | 6.4 | 19.3 | 0.00 | 0.00 | 0.00 | 35 | 1003.7 |
| 20260504223029 | 20 | 191 | 17.7 | 17.7 | 0.00 | 0.00 | 0.00 | 35 | 1003.8 |
| 20260504222029 | 21 | 212 | 14.5 | 17.7 | 0.00 | 0.00 | 0.00 | 34 | 1003.8 |
| 20260504221029 | 21 | 215 | 14.5 | 20.9 | 0.00 | 0.00 | 0.00 | 32 | 1003.8 |
| 20260504220029 | 21 | 223 | 12.9 | 20.9 | 0.00 | 0.00 | 0.00 | 32 | 1003.8 |
| 20260504215029 | 21 | 231 | 9.7 | 25.7 | 0.00 | 0.00 | 0.00 | 34 | 1003.8 |
| 20260504214029 | 20 | 214 | 11.3 | 29.0 | 0.00 | 0.00 | 0.00 | 38 | 1003.9 |
| 20260504213029 | 20 | 203 | 14.5 | 37.0 | 0.00 | 0.00 | 0.00 | 36 | 1004.0 |
| 20260504212029 | 20 | 158 | 29.0 | 37.0 | 0.00 | 0.00 | 0.00 | 33 | 1004.0 |
| 20260504211059 | 20 | 244 | 11.3 | 29.0 | 0.00 | 0.00 | 0.00 | 35 | 1004.1 |
| 20260504210029 | 20 | 219 | 20.9 | 33.8 | 0.00 | 0.00 | 0.00 | 36 | 1004.1 |
| 20260504205029 | 21 | 223 | 12.9 | 29.0 | 0.00 | 0.00 | 0.00 | 36 | 1004.0 |
| 20260504203029 | 20 | 213 | 17.7 | 33.8 | 0.00 | 0.00 | 0.00 | 35 | 1004.3 |
| 20260504201028 | 20 | 220 | 20.9 | 29.0 | 0.00 | 0.00 | 0.00 | 39 | 1004.6 |
| 20260504200029 | 20 | 219 | 17.7 | 29.0 | 0.00 | 0.00 | 0.00 | 37 | 1004.7 |
| 20260504195029 | 20 | 221 | 19.3 | 30.6 | 0.00 | 0.00 | 0.00 | 40 | 1004.7 |
| 20260504192028 | 20 | 211 | 8.0 | 40.2 | 0.00 | 0.00 | 0.00 | 43 | 1005.1 |
| 20260504191028 | 19 | 226 | 11.3 | 40.2 | 0.00 | 0.00 | 0.00 | 40 | 1005.3 |
| 20260504190058 | 20 | 222 | 16.1 | 37.0 | 0.00 | 0.00 | 0.00 | 40 | 1005.4 |
| 20260504185028 | 19 | 204 | 16.1 | 33.8 | 0.00 | 0.00 | 0.00 | 42 | 1005.5 |
| 20260504184028 | 18 | 212 | 19.3 | 32.2 | 0.00 | 0.00 | 0.00 | 41 | 1005.5 |
| 20260504183058 | 19 | 250 | 16.1 | 29.0 | 0.00 | 0.00 | 0.00 | 45 | 1005.7 |
| 20260504182028 | 18 | 252 | 11.3 | 33.8 | 0.00 | 0.00 | 0.00 | 43 | 1005.6 |
| 20260504181028 | 18 | 273 | 29.0 | 35.4 | 0.00 | 0.00 | 0.00 | 45 | 1005.6 |
| 20260504180058 | 18 | 236 | 16.1 | 35.4 | 0.00 | 0.00 | 0.00 | 45 | 1005.8 |
| 20260504175058 | 18 | 227 | 14.5 | 35.4 | 0.00 | 0.00 | 0.00 | 46 | 1006.2 |
| 20260504174028 | 18 | 216 | 12.9 | 37.0 | 0.00 | 0.00 | 0.00 | 50 | 1006.1 |
| 20260504173059 | 17 | 222 | 20.9 | 37.0 | 0.00 | 0.00 | 0.00 | 46 | 1006.0 |
| 20260504172028 | 17 | 211 | 35.4 | 37.0 | 0.00 | 0.00 | 0.00 | 46 | 1006.1 |
| 20260504171028 | 17 | 188 | 22.5 | 29.0 | 0.00 | 0.00 | 0.00 | 49 | 1006.0 |
| 20260504151027 | 14 | 211 | 12.9 | 32.2 | 0.00 | 0.00 | 0.00 | 51 | 1007.0 |
| 20260504081026 | 7 | 200 | 9.7 | 9.7 | 0.00 | 0.00 | 0.00 | 62 | 1008.0 |
| 20260504045055 | 9 | 206 | 8.0 | 11.3 | 0.00 | 0.00 | 0.00 | 57 | 1008.6 |
| 20260504044055 | 9 | 207 | 11.3 | 14.5 | 0.00 | 0.00 | 0.00 | 55 | 1008.6 |
| 20260504043025 | 10 | 208 | 9.7 | 16.1 | 0.00 | 0.00 | 0.00 | 53 | 1008.6 |
| 20260504042055 | 10 | 211 | 9.7 | 16.1 | 0.00 | 0.00 | 0.00 | 52 | 1008.7 |
| 20260504041025 | 10 | 212 | 6.4 | 20.9 | 0.00 | 0.00 | 0.00 | 53 | 1008.7 |
| 20260504040055 | 10 | 219 | 11.3 | 17.7 | 0.00 | 0.00 | 0.00 | 52 | 1008.8 |